[[{"header":{"parameterUnit":"m.s-1","parameterCategory":1,"la1":30.2991,"la2":30.254,"lo1":-89.0895,"lo2":-89.0444,"dy":0.0017,"dx":0.0017,"nx":28,"ny":28,"refTime":"2025-09-19T03:00:00:Z","depth":0,"parameterNumber":2,"parameterNumberName":"U-component_of_WINDS"},"data":[0,0,0,0,0,0,0,0,0,0,0,0,0,0,0,0,0,0,0,0,0,0,0,0,0,0,0,0,0,0,0,0,0,0,0,0,0,0,0,0,0,0,0,0,0,0,0,0,0,0,0,0,0,0,0,0,0,0,2.4562,2.4564,0,2.4701,2.4703,2.4704,2.473,2.4729,2.4728,2.4727,2.4866,2.487,2.4875,0,0,0,0,0,0,0,0,0,0,0,0,0,2.4315,2.4319,2.4562,2.4564,2.4565,2.4701,2.4703,2.4705,2.473,2.4729,2.4727,2.4726,2.4864,2.487,2.4875,0,0,0,0,0,0,0,0,0,0,0,0,0,2.4435,2.4321,2.4562,2.4595,2.4599,2.47,2.4703,2.4705,2.473,2.4729,2.4727,2.4726,2.4862,2.4869,2.4876,2.4953,0,0,2.4898,2.4901,0,0,0,0,0,0,0,0,2.4428,2.4444,2.4588,2.4593,2.4598,2.4697,2.4667,2.4788,2.4731,2.468,2.4727,2.4725,2.481,2.4822,2.4851,2.496,2.4966,2.4898,2.4903,2.4906,2.4908,0,0,0,0,0,0,0,2.442,2.4438,2.4617,2.459,2.4596,2.4601,2.4616,2.469,2.4753,2.4685,2.4687,2.4703,2.4813,2.4844,2.4855,2.4968,2.4898,2.4905,2.4909,2.4912,2.5145,2.5147,0,0,0,0,0,0,2.4406,2.4431,2.4612,2.4621,2.4507,2.4607,2.4624,2.4666,2.4752,2.4764,2.4704,2.4704,2.4833,2.4846,2.486,2.4954,2.4906,2.4912,2.4916,2.5143,2.5145,2.5147,0,0,0,0,0,0,2.4401,2.4422,2.4607,2.4527,2.4551,2.4613,2.466,2.467,2.4702,2.4767,2.4778,2.4725,2.4832,2.485,2.493,2.4959,2.4916,2.4922,2.5141,2.5144,2.5146,2.5144,0,0,0,0,0,0,2.4393,2.442,2.4451,2.4527,2.4555,2.4675,2.4662,2.4674,2.4714,2.4715,2.479,2.4801,2.4832,2.4919,2.4937,2.4968,2.4928,2.5138,2.5142,2.5145,2.5142,2.5147,2.5151,0,0,0,0,0,2.4384,2.4444,2.4452,2.4474,2.4595,2.4677,2.4693,2.4729,2.4717,2.4747,2.4789,2.4798,2.4954,2.4927,2.4947,2.4981,2.5136,2.5141,2.5145,2.514,2.5146,2.5151,0,0,0,0,0,0,2.4368,2.4455,2.4464,2.4551,2.4607,2.4681,2.4721,2.4734,2.4794,2.4791,2.4833,2.485,2.4927,2.4963,2.4931,2.506,2.5044,2.5053,2.5033,2.5039,2.5044,2.5032,2.4933,0,0,0,0,0,2.4375,2.4436,2.4508,2.4577,2.4604,2.4658,2.4695,2.4718,2.4777,2.48,2.4848,2.4904,2.4965,2.5005,2.5065,2.5148,2.5164,2.5182,2.5186,2.5189,2.5195,2.524,2.5248,2.5162,2.5162,2.5161,0,0,2.4388,2.4443,2.4479,2.4575,2.4621,2.4681,2.4677,2.4742,2.4787,2.481,2.4888,2.4925,2.499,2.5071,2.511,2.5103,2.5223,2.5195,2.5197,2.5202,2.5245,2.5254,2.5261,2.5165,2.5164,2.5164,0,0,2.4444,2.4493,2.4555,2.4601,2.4671,2.4707,2.4721,2.4795,2.482,2.49,2.4918,2.4972,2.5077,2.5122,2.5159,2.5232,2.5241,2.525,2.5273,2.5316,2.5323,2.5329,2.5353,2.5361,2.5257,2.5257,2.5257,0,2.4451,2.4545,2.4585,2.4649,2.4689,2.4715,2.4777,2.482,2.4905,2.4932,2.4925,2.5057,2.5102,2.5194,2.5211,2.5241,2.5258,2.5241,2.5319,2.5325,2.5332,2.5355,2.5364,2.5257,2.5257,2.5257,2.5257,0,2.455,2.4614,2.4656,2.4738,2.4784,2.4847,2.4895,2.4937,2.4956,2.4992,2.5072,2.5128,2.5199,2.5223,2.5242,2.5317,2.5311,2.5311,2.5295,2.534,2.5362,2.5371,2.5258,2.5258,2.5258,2.5257,0,0,2.4596,2.4702,2.4716,2.4753,2.4833,2.4882,2.4946,2.5017,2.505,2.5109,2.5162,2.5251,2.5251,2.5292,2.5317,2.5356,2.5407,2.5351,2.5353,2.5357,2.549,2.5488,2.5498,2.5415,2.5417,2.5419,2.5484,0,2.4659,2.4774,2.4813,2.4907,2.4966,2.4992,2.5047,2.51,2.5136,2.519,2.5229,2.529,2.5287,2.5312,2.5351,2.5393,2.5434,2.5389,2.5463,2.5465,2.5443,2.551,2.5508,2.5567,2.5493,2.5495,2.5496,0,2.4748,2.4809,2.4909,2.4981,2.5007,2.5056,2.5123,2.5176,2.5237,2.526,2.5306,2.5328,2.5394,2.5377,2.5467,2.5435,2.5468,2.5493,2.5496,2.5502,2.5481,2.5515,2.5587,2.5594,2.5511,2.5509,2.5508,0,2.4769,2.4876,2.495,2.4982,2.5067,2.5101,2.5138,2.5198,2.5238,2.5296,2.5322,2.5388,2.5423,2.5473,2.5511,2.5496,2.5597,2.5584,2.5616,2.5615,2.5634,2.5632,2.5709,2.566,2.5659,2.5659,2.5659,0,2.4834,2.4894,2.496,2.5005,2.5073,2.5116,2.5182,2.522,2.5273,2.5325,2.5352,2.5399,2.5449,2.5503,2.5534,2.5602,2.5619,2.5637,2.5644,2.5634,2.5631,2.5654,2.565,2.5662,2.5661,2.5661,2.566,0,2.4867,2.4915,2.4997,2.5072,2.5092,2.5138,2.5202,2.5246,2.5283,2.5348,2.5366,2.5423,2.5488,2.5533,2.5616,2.5636,2.571,2.5717,2.5689,2.5692,2.5721,2.5717,2.5814,2.5828,2.5771,2.5771,2.5772,0,2.4904,2.4951,2.5032,2.5069,2.5106,2.5166,2.5207,2.5252,2.5293,2.5367,2.5401,2.5468,2.5524,2.5626,2.5675,2.5738,2.5746,2.5776,2.5755,2.5743,2.5743,2.5739,2.5743,2.5777,2.5778,2.5778,2.5779,0,2.4964,2.4985,2.5044,2.5112,2.516,2.5215,2.527,2.5299,2.5352,2.5397,2.5465,2.5508,2.5593,2.5659,2.5727,2.5764,2.5779,2.5785,2.5795,2.5784,2.5765,2.5773,2.5695,2.5782,2.5782,2.5781,2.5781,2.5781,2.4999,2.5042,2.5105,2.5169,2.5216,2.5266,2.5311,2.5354,2.5412,2.5485,2.5508,2.5577,2.5637,2.573,2.5768,2.5822,2.5819,2.5835,2.5838,2.5841,2.5839,2.5758,2.5835,2.5835,2.5835,2.5835,2.5835,0,2.5058,2.51,2.516,2.5236,2.5286,2.5299,2.5361,2.5401,2.5463,2.5518,2.5572,2.5649,2.5713,2.5767,2.5832,2.5865,2.5874,2.588,2.5877,2.5885,2.5839,2.5823,2.5872,2.5872,2.5872,2.5872,2.5872,2.5872,2.5095,2.5167,2.5195,2.529,2.5332,2.5401,2.5435,2.5481,2.5525,2.561,2.5663,2.5699,2.5753,2.5823,2.5881,2.5895,2.5917,2.5922,2.5937,2.5893,2.5888,2.5884,2.5868,2.5927,2.5927,2.5978,2.5978,2.5979]},{"header":{"parameterUnit":"m.s-1","parameterCategory":1,"la1":30.2991,"la2":30.254,"lo1":-89.0895,"lo2":-89.0444,"dy":0.0017,"dx":0.0017,"nx":28,"ny":28,"refTime":"2025-09-19T03:00:00:Z","depth":0,"parameterNumber":3,"parameterNumberName":"V-component_of_WINDS"},"data":[0,0,0,0,0,0,0,0,0,0,0,0,0,0,0,0,0,0,0,0,0,0,0,0,0,0,0,0,0,0,0,0,0,0,0,0,0,0,0,0,0,0,0,0,0,0,0,0,0,0,0,0,0,0,0,0,0,0,3.6442,3.6441,0,3.6398,3.6398,3.6397,3.6329,3.6328,3.6327,3.6326,3.6281,3.6281,3.6281,0,0,0,0,0,0,0,0,0,0,0,0,0,3.6467,3.6467,3.6442,3.6441,3.6441,3.6398,3.6398,3.6397,3.633,3.6328,3.6327,3.6325,3.6281,3.6281,3.6281,0,0,0,0,0,0,0,0,0,0,0,0,0,3.6443,3.6467,3.6442,3.6402,3.6398,3.6398,3.6398,3.6397,3.633,3.6328,3.6326,3.6325,3.6281,3.6281,3.6281,3.6317,0,0,3.6281,3.6281,0,0,0,0,0,0,0,0,3.6445,3.6442,3.6408,3.6405,3.64,3.6367,3.639,3.637,3.633,3.6356,3.6326,3.6324,3.6311,3.6309,3.6304,3.6315,3.6313,3.6281,3.6281,3.6281,3.6281,0,0,0,0,0,0,0,3.6446,3.6444,3.6425,3.6408,3.6403,3.6386,3.6381,3.6386,3.6344,3.6353,3.6348,3.6344,3.6309,3.6305,3.6303,3.6312,3.6281,3.6281,3.6281,3.6281,3.635,3.6351,0,0,0,0,0,0,3.6454,3.6446,3.6426,3.6423,3.6418,3.6387,3.6381,3.638,3.6344,3.6337,3.6346,3.6341,3.6306,3.6303,3.6301,3.634,3.6281,3.6281,3.6281,3.6348,3.635,3.6352,0,0,0,0,0,0,3.6455,3.6453,3.6428,3.6433,3.6429,3.6389,3.6388,3.638,3.6376,3.6338,3.6331,3.6349,3.6304,3.6301,3.6313,3.6338,3.6281,3.6281,3.6346,3.6349,3.6351,3.6419,0,0,0,0,0,0,3.6456,3.6454,3.6467,3.6434,3.6429,3.6441,3.6389,3.638,3.6376,3.6369,3.634,3.6333,3.6303,3.6314,3.6313,3.6336,3.628,3.6343,3.6347,3.635,3.6414,3.6424,3.6432,0,0,0,0,0,3.6457,3.6487,3.6468,3.6466,3.6444,3.6442,3.6439,3.6404,3.6378,3.6391,3.6367,3.6334,3.6336,3.6316,3.6315,3.6338,3.6341,3.6346,3.635,3.641,3.6422,3.6431,0,0,0,0,0,0,3.6524,3.6482,3.646,3.6481,3.6466,3.6431,3.6446,3.6417,3.6409,3.6403,3.636,3.6354,3.6371,3.6356,3.6335,3.6371,3.6333,3.6338,3.638,3.639,3.6399,3.6401,3.628,0,0,0,0,0,3.6541,3.6543,3.6507,3.6529,3.6522,3.6486,3.6484,3.6458,3.644,3.6434,3.641,3.6395,3.6392,3.639,3.6385,3.6412,3.6404,3.6428,3.6437,3.6444,3.6448,3.646,3.647,3.6366,3.6366,3.6366,0,0,3.6577,3.6554,3.6558,3.6542,3.6527,3.653,3.6481,3.6486,3.6488,3.6434,3.6444,3.6427,3.6407,3.6426,3.6434,3.6414,3.6475,3.6449,3.6456,3.6455,3.6465,3.6475,3.6484,3.6369,3.6368,3.6368,0,0,3.6642,3.6626,3.6642,3.6628,3.6607,3.6582,3.6587,3.6556,3.6543,3.6552,3.6512,3.6514,3.651,3.6496,3.6489,3.6551,3.652,3.6551,3.6596,3.6609,3.6617,3.6624,3.6645,3.6653,3.6555,3.6556,3.6556,0,3.6689,3.6691,3.6654,3.6662,3.6655,3.6608,3.6624,3.6613,3.6591,3.6588,3.6566,3.656,3.6543,3.6558,3.6573,3.657,3.6573,3.6553,3.6619,3.6625,3.6631,3.6651,3.6659,3.6559,3.6559,3.6559,3.6558,0,3.6749,3.6752,3.6768,3.6747,3.6743,3.6755,3.672,3.672,3.6696,3.6674,3.6684,3.6662,3.6651,3.6654,3.6629,3.6666,3.6654,3.6627,3.6588,3.6646,3.6663,3.667,3.6565,3.6563,3.6562,3.6561,0,0,3.6854,3.6814,3.682,3.681,3.6784,3.6785,3.6795,3.6785,3.6786,3.6773,3.678,3.6778,3.6752,3.6744,3.6718,3.6729,3.6779,3.67,3.6699,3.6714,3.6817,3.6837,3.6846,3.6759,3.676,3.6761,3.6818,0,3.6913,3.6927,3.6894,3.6917,3.6918,3.6874,3.6883,3.6867,3.6848,3.6846,3.6824,3.6823,3.679,3.6785,3.6794,3.6771,3.6799,3.6767,3.6764,3.6764,3.6769,3.6855,3.6876,3.6931,3.6825,3.6826,3.6827,0,3.6983,3.6974,3.6996,3.6968,3.6968,3.6976,3.6964,3.6964,3.6946,3.6931,3.6922,3.6892,3.69,3.6864,3.6874,3.6853,3.6851,3.6839,3.684,3.6837,3.6798,3.6853,3.6947,3.6955,3.6837,3.6837,3.6836,0,3.7055,3.7049,3.7061,3.7054,3.7022,3.7029,3.7016,3.6996,3.6993,3.6983,3.698,3.6971,3.6966,3.696,3.6928,3.6906,3.6942,3.6904,3.6929,3.693,3.6937,3.6936,3.703,3.6938,3.6938,3.6938,3.6938,0,3.7124,3.7139,3.7093,3.71,3.7116,3.7079,3.7096,3.7079,3.7062,3.7065,3.7027,3.7031,3.6989,3.6989,3.6964,3.6976,3.6974,3.6962,3.6955,3.6964,3.6966,3.6961,3.6955,3.694,3.6939,3.6939,3.6939,0,3.7206,3.7176,3.7187,3.7156,3.7149,3.7162,3.7135,3.7141,3.712,3.7124,3.7123,3.7089,3.7087,3.7055,3.7046,3.7029,3.705,3.7036,3.7056,3.7051,3.7077,3.7075,3.717,3.718,3.7083,3.7084,3.7085,0,3.7251,3.7261,3.7232,3.7232,3.7221,3.722,3.7216,3.7181,3.7178,3.7159,3.7167,3.7162,3.7155,3.7153,3.7127,3.712,3.7105,3.7139,3.7104,3.7113,3.7104,3.7103,3.7104,3.7146,3.7147,3.7148,3.7149,0,3.7332,3.7317,3.7313,3.7304,3.7301,3.7292,3.728,3.7282,3.7243,3.7242,3.7239,3.7235,3.7225,3.722,3.7208,3.7195,3.7165,3.7161,3.7166,3.7175,3.7185,3.7179,3.7075,3.7158,3.7157,3.7157,3.7156,3.7156,3.7396,3.7404,3.7384,3.7381,3.7369,3.7359,3.7363,3.7342,3.7339,3.7329,3.7309,3.7309,3.7291,3.7272,3.7261,3.7261,3.7243,3.7251,3.7252,3.7255,3.7259,3.7187,3.7259,3.7258,3.7258,3.7258,3.7257,0,3.7475,3.7461,3.7458,3.7444,3.7441,3.7415,3.7401,3.7401,3.7402,3.7387,3.7382,3.7379,3.7374,3.7348,3.7341,3.7345,3.7331,3.7344,3.7343,3.734,3.7276,3.7272,3.7355,3.7355,3.7355,3.7355,3.7355,3.7355,3.7515,3.7526,3.7509,3.7514,3.7499,3.7499,3.7494,3.7485,3.7473,3.7472,3.7467,3.7451,3.7432,3.7423,3.7417,3.741,3.7408,3.7425,3.7413,3.7354,3.7344,3.7335,3.7331,3.7425,3.7426,3.7477,3.7477,3.7478]}]]